PBO Station Position Time Series. Reference Frame : NAM14
Format Version,1.1.0
4-character ID,NAYX
Station name,nayxREGNOMmx2010
Begin Date, 2018-09-15
End Date, 2019-10-06
Release Date, 2019-10-08
Reference position, 32.3242833345 North Latitude, -115.2955129381 East Longitude, -23.85471 meters elevation,
Date, North (mm), East (mm), Vertical (mm), North Std. Deviation (mm), East Std. Deviation (mm),              Vertical Std. Deviation (mm), Quality,
2018-09-15,0.00, 0.00, 15.39, 4.69, 3.39, 20.53, repro,
2018-09-16,1.31, -1.14, 0.45, 11.12, 4.46, 62.72, repro,
2018-09-17,0.46, -0.61, -2.41, 10.15, 3.82, 47.05, repro,
2018-09-18,0.09, -1.35, 5.79, 16.31, 3.99, 57.23, repro,
2018-09-19,0.49, -0.87, -9.68, 6.82, 2.26, 26.12, repro,
2018-09-20,0.42, 1.24, -6.29, 10.92, 3.02, 37.99, repro,
2018-09-21,-0.16, 1.10, 7.22, 16.42, 3.63, 99.70, repro,
2018-09-22,0.20, -0.67, -3.98, 8.98, 2.77, 63.86, repro,
2018-09-23,1.54, -0.81, 3.71, 3.77, 2.48, 28.90, repro,
2018-09-24,-0.11, 0.06, 7.39, 4.65, 2.33, 32.87, repro,
2018-09-25,1.75, -0.18, 0.41, 5.52, 2.72, 61.06, repro,
2018-09-26,0.73, -0.43, 0.94, 4.61, 2.24, 32.60, repro,
2018-09-27,0.33, -1.24, 2.85, 4.60, 2.24, 32.59, repro,
2018-09-28,0.67, -0.16, -5.67, 4.09, 2.28, 29.35, repro,
2018-09-29,1.70, -1.07, 1.78, 5.55, 2.74, 61.16, repro,
2018-09-30,-0.95, -0.52, 10.47, 4.08, 2.92, 29.91, repro,
2018-10-01,1.35, -0.97, -2.57, 3.50, 2.97, 25.52, repro,
2018-10-02,0.25, 0.88, 3.48, 3.51, 2.94, 25.38, repro,
2018-10-03,0.63, 0.28, -8.34, 6.98, 2.92, 38.98, repro,
2018-10-04,-0.08, -0.91, -2.21, 4.33, 2.81, 23.37, repro,
2018-10-05,1.23, -2.00, -3.21, 4.58, 2.49, 30.43, repro,
2018-10-06,0.98, -1.96, 0.00, 2.75, 2.05, 14.09, repro,
2018-10-07,0.86, -1.42, 1.89, 4.49, 2.54, 24.40, repro,
2018-10-08,0.05, -0.11, -1.55, 3.00, 1.99, 13.40, repro,
2018-10-09,-91.05, 7281.04, 7.57, 10000.00, 10000.00, 10000.00, repro,
2018-10-10,1.22, -0.17, -0.13, 4.77, 2.57, 32.42, repro,
2018-10-11,-0.46, 0.09, 3.17, 4.65, 2.51, 31.16, repro,
2018-10-12,0.96, -0.14, 1.36, 4.35, 3.09, 32.17, repro,
2018-10-13,2.35, -0.58, -1.72, 4.71, 2.60, 31.50, repro,
2018-10-14,0.16, -0.27, -7.02, 4.61, 2.42, 35.13, repro,
2018-10-15,0.85, 1.50, -6.71, 5.31, 2.27, 33.95, repro,
2018-10-16,1.59, 0.51, -3.86, 4.19, 2.31, 29.99, repro,
2018-10-17,1.64, -0.17, -9.33, 2.29, 2.30, 16.47, repro,
2018-10-18,-0.12, 0.15, -6.15, 3.61, 5.25, 29.38, repro,
2018-10-19,0.12, -0.54, -7.06, 3.63, 5.27, 29.40, repro,
2018-10-20,0.90, 0.48, -4.47, 2.71, 5.97, 23.83, repro,
2018-10-21,0.09, 0.00, -0.32, 2.72, 1.99, 12.99, repro,
2018-10-22,-0.38, 0.38, -2.15, 2.74, 2.01, 13.08, repro,
2018-10-23,0.39, -1.07, -0.58, 2.76, 1.97, 14.04, repro,
2018-10-24,-0.09, -0.82, 0.03, 2.84, 2.04, 13.01, repro,
2018-10-25,1.00, -0.77, -1.52, 2.76, 2.04, 14.05, repro,
2018-10-26,-0.36, 1.20, 3.82, 4.37, 2.55, 22.29, repro,
2018-10-27,1.21, -0.54, -0.47, 4.07, 2.93, 29.05, repro,
2018-10-28,0.55, -0.00, 2.53, 3.73, 3.08, 21.67, repro,
2018-10-29,0.81, 0.27, -2.11, 3.18, 2.54, 16.56, repro,
2018-10-30,0.14, 0.30, 3.32, 3.73, 3.06, 22.36, repro,
2018-10-31,1.28, -0.68, -1.04, 3.71, 3.07, 21.94, repro,
2018-11-01,2.39, 1.43, 1.01, 3.70, 3.08, 21.62, repro,
2018-11-02,0.93, 0.84, 8.31, 2.12, 3.77, 19.03, repro,
2018-11-03,1.79, -0.35, -0.40, 2.25, 2.89, 16.36, repro,
2018-11-04,0.86, -0.35, 0.06, 2.64, 1.95, 12.45, repro,
2018-11-05,-0.08, -0.51, 8.57, 2.70, 1.90, 13.56, repro,
2018-11-06,1.06, 0.58, -0.55, 2.54, 1.95, 11.43, repro,
2018-11-07,0.59, 0.64, 2.89, 2.60, 1.93, 12.17, repro,
2018-11-08,-0.33, -0.46, -3.73, 3.24, 1.97, 14.95, repro,
2018-11-09,0.87, 0.56, -8.64, 2.91, 2.04, 14.24, repro,
2018-11-10,1.28, 0.83, -4.91, 5.99, 2.15, 22.59, repro,
2018-11-11,0.76, -0.16, -4.43, 14.10, 4.63, 69.63, repro,
2018-11-12,0.62, -0.04, -7.22, 18.24, 5.56, 85.18, repro,
2018-11-13,0.42, 0.55, -3.56, 5.84, 2.10, 21.83, repro,
2018-11-14,1.40, 0.21, -7.28, 5.69, 2.06, 21.21, repro,
2018-11-15,0.30, -0.38, -6.74, 13.68, 4.45, 66.60, repro,
2018-11-16,0.27, 0.13, 0.47, 17.93, 5.51, 84.36, repro,
2018-11-17,0.75, 0.80, -2.10, 12.37, 4.13, 60.52, repro,
2018-11-18,-0.32, -0.07, 1.84, 18.42, 5.63, 86.37, repro,
2018-11-19,-1.61, 1.59, 17.06, 22.83, 12.02, 187.74, repro,
2018-11-20,-0.04, -0.78, 3.46, 18.42, 5.63, 86.21, repro,
2018-11-21,0.37, -0.41, -2.81, 18.31, 5.61, 85.73, repro,
2018-11-22,-0.17, 2.06, 8.50, 22.79, 11.99, 187.27, repro,
2018-11-23,-1.40, -0.82, -0.82, 18.41, 5.60, 85.98, repro,
2018-11-24,0.64, 0.61, 1.91, 14.29, 4.64, 69.40, repro,
2018-11-25,0.87, -0.62, -3.73, 17.24, 10.01, 157.46, repro,
2018-11-26,1.76, -0.66, -5.96, 11.16, 4.79, 69.64, repro,
2018-11-27,2.65, -2.27, -23.78, 22.93, 12.10, 188.98, repro,
2018-11-28,0.59, 0.79, -1.23, 10.58, 4.37, 61.99, repro,
2018-11-29,-1.29, -1.95, -4.31, 6.69, 3.63, 40.47, repro,
2018-11-30,0.60, -2.21, 5.89, 8.93, 8.45, 127.37, repro,
2018-12-01,0.18, -0.78, 11.30, 17.26, 10.01, 157.69, repro,
2018-12-02,1.92, -0.02, 3.36, 11.16, 7.80, 80.63, repro,
2018-12-03,1.16, -0.25, -2.03, 10.99, 7.75, 79.87, repro,
2018-12-04,0.73, -0.14, -3.80, 9.40, 5.31, 58.86, repro,
2018-12-05,-0.61, -0.41, -0.36, 12.80, 6.01, 58.43, repro,
2018-12-06,-0.95, -1.35, -4.67, 11.10, 7.78, 80.37, repro,
2018-12-07,0.58, -0.02, -2.30, 11.46, 8.07, 83.07, repro,
2018-12-08,0.71, 0.42, -8.54, 11.07, 7.73, 79.61, repro,
2018-12-09,1.05, -0.67, -10.47, 11.20, 4.76, 46.76, repro,
2018-12-10,1.96, 0.49, -6.19, 11.53, 8.02, 82.92, repro,
2018-12-11,1.28, -0.62, -9.75, 11.09, 7.72, 79.69, repro,
2018-12-12,1.95, -0.48, -1.69, 10.94, 7.69, 79.52, repro,
2018-12-13,1.32, -0.10, -0.24, 11.21, 8.09, 83.45, repro,
2018-12-14,1.50, -1.31, -5.82, 11.35, 8.18, 84.39, repro,
2018-12-15,1.23, -0.94, -1.66, 9.25, 5.25, 58.01, repro,
2018-12-16,0.96, -0.85, -11.60, 9.79, 3.47, 42.90, repro,
2018-12-17,1.31, -0.41, -3.96, 22.38, 6.12, 97.85, repro,
2018-12-18,0.39, -0.71, 1.93, 9.45, 4.60, 47.62, repro,
2018-12-19,0.78, -0.32, -5.54, 12.25, 5.83, 56.60, repro,
2018-12-20,-0.11, -0.78, -1.71, 7.61, 4.49, 49.16, repro,
2018-12-21,0.13, 0.16, 0.89, 22.32, 12.76, 199.53, repro,
2018-12-22,0.02, 0.21, 0.33, 22.20, 6.06, 96.84, repro,
2018-12-23,1.15, -0.10, -4.16, 13.32, 5.93, 85.79, repro,
2018-12-24,1.43, 0.81, -1.18, 13.13, 4.79, 67.05, repro,
2018-12-25,0.24, -2.25, -2.22, 7.43, 4.09, 56.03, repro,
2018-12-26,0.40, -1.11, 1.67, 8.90, 4.95, 69.76, repro,
2018-12-27,1.09, -0.96, -2.53, 8.25, 3.81, 51.15, repro,
2018-12-28,2.13, -0.81, -1.50, 8.79, 4.82, 67.32, repro,
2018-12-29,0.99, -0.63, -8.02, 13.03, 3.28, 45.15, repro,
2018-12-30,0.77, -0.07, -5.02, 6.94, 4.67, 59.54, repro,
2018-12-31,0.82, -1.45, -0.97, 8.40, 4.19, 63.68, repro,
2019-01-01,1.44, 0.25, -2.22, 5.87, 3.40, 39.00, repro,
2019-01-02,1.32, 0.01, -3.52, 5.89, 3.40, 39.06, repro,
2019-01-03,1.94, 0.77, -5.51, 13.07, 6.56, 50.17, repro,
2019-01-04,1.35, 0.07, -0.66, 6.09, 3.22, 36.91, repro,
2019-01-05,-0.01, -0.29, -1.06, 5.98, 4.79, 78.78, repro,
2019-01-06,-0.24, 1.15, 2.08, 8.30, 4.14, 62.63, repro,
2019-01-07,0.53, -1.16, -6.41, 6.28, 4.77, 78.24, repro,
2019-01-08,1.22, -0.25, -13.32, 6.57, 4.30, 61.03, repro,
2019-01-09,1.15, 1.45, -8.66, 8.06, 4.47, 30.87, repro,
2019-01-10,-0.22, 0.25, -1.33, 12.61, 6.78, 52.45, repro,
2019-01-11,1.12, -0.40, 0.02, 12.22, 6.74, 52.33, repro,
2019-01-12,0.23, 0.98, -1.35, 6.14, 3.25, 37.42, repro,
2019-01-13,0.76, 0.46, -7.67, 6.30, 4.10, 36.98, repro,
2019-01-14,1.95, -0.39, -12.12, 7.48, 4.25, 37.63, repro,
2019-01-15,0.28, -0.33, -5.13, 6.26, 4.08, 36.89, repro,
2019-01-16,1.76, -0.50, -13.63, 4.40, 3.21, 21.24, repro,
2019-01-17,1.59, 1.38, -5.98, 6.84, 4.75, 44.68, repro,
2019-01-18,0.34, 1.14, -9.82, 4.26, 3.23, 21.30, repro,
2019-01-19,2.05, 0.26, -13.93, 6.41, 4.21, 37.62, repro,
2019-01-20,2.46, 0.98, -10.69, 6.58, 4.35, 38.36, repro,
2019-01-21,2.43, 0.99, -2.69, 7.90, 5.89, 70.68, repro,
2019-01-22,1.41, 0.42, -8.31, 6.57, 4.28, 38.26, repro,
2019-01-23,0.25, 0.96, -0.52, 6.44, 4.24, 38.22, repro,
2019-01-24,1.62, -0.25, -6.04, 7.61, 4.29, 38.48, repro,
2019-01-25,0.72, 0.37, -6.31, 9.24, 9.49, 112.84, repro,
2019-01-26,2.02, -0.24, -9.05, 11.11, 9.57, 106.16, repro,
2019-01-27,-0.31, 1.28, -4.46, 9.54, 4.58, 47.79, supp6,
2019-01-28,-0.97, 1.70, -3.24, 13.13, 3.82, 51.81, supp6,
2019-01-29,0.24, 1.46, -12.17, 11.44, 3.87, 53.40, supp6,
2019-01-30,0.47, 0.90, -3.85, 9.39, 7.61, 99.00, supp6,
2019-01-31,0.46, 1.61, -3.47, 11.24, 5.15, 61.26, supp6,
2019-02-01,0.12, 0.04, -8.14, 10.80, 5.00, 59.99, supp6,
2019-02-02,-0.05, 1.96, -3.84, 9.72, 4.58, 58.97, supp6,
2019-02-03,0.36, 1.54, -1.61, 8.64, 6.15, 75.00, sup6f,
2019-02-04,-0.22, 0.48, -3.93, 9.12, 4.12, 52.90, sup6f,
2019-02-05,0.54, 2.48, -7.27, 10.92, 5.04, 60.64, sup6f,
2019-02-06,0.35, 1.85, 0.50, 11.67, 3.81, 50.45, sup6f,
2019-02-07,0.02, 0.66, -1.18, 13.13, 6.62, 50.30, sup6f,
2019-02-08,-0.08, 0.87, -4.33, 7.44, 3.99, 54.01, sup6f,
2019-02-09,-0.23, 0.13, -5.51, 7.54, 3.27, 38.72, sup6f,
2019-02-10,0.80, -0.70, -3.81, 3.91, 2.80, 21.09, suppf,
2019-02-11,0.98, 0.12, 4.07, 6.15, 3.72, 24.19, suppf,
2019-02-12,0.19, 0.15, -3.85, 4.66, 3.01, 24.31, suppf,
2019-02-13,0.34, 1.29, 2.14, 4.53, 3.13, 32.25, suppf,
2019-02-14,-0.43, -0.59, 3.82, 4.45, 4.16, 50.35, suppf,
2019-02-15,-0.37, 2.04, 2.50, 4.40, 4.14, 47.64, suppf,
2019-02-16,2.77, 0.27, 7.91, 6.35, 4.16, 37.45, suppf,
2019-02-24,-0.33, 0.15, -6.08, 1.90, 1.72, 7.75, suppf,
2019-02-25,-0.14, 0.82, -2.62, 1.84, 1.66, 7.40, suppf,
2019-02-26,0.52, 0.30, -6.66, 1.82, 1.62, 7.23, suppf,
2019-02-27,0.10, 0.32, -2.09, 1.82, 1.62, 7.28, suppf,
2019-02-28,-0.63, 1.23, -1.68, 1.84, 1.63, 7.36, suppf,
2019-03-01,-0.09, 0.32, -4.00, 1.91, 1.70, 7.64, suppf,
2019-03-02,-1.17, -1.52, 7.52, 1.90, 1.76, 7.82, suppf,
2019-03-03,0.79, 0.87, -4.07, 1.89, 1.74, 7.67, suppf,
2019-03-04,0.66, 0.01, -2.99, 1.82, 1.62, 7.28, suppf,
2019-03-05,-0.24, 0.32, 0.56, 1.87, 1.72, 7.52, suppf,
2019-03-06,1.66, -1.89, 1.52, 1.83, 1.62, 7.25, suppf,
2019-03-07,2.19, 2.30, -4.50, 1.86, 1.68, 7.46, suppf,
2019-03-08,-0.05, 0.46, 9.05, 1.85, 1.64, 7.40, suppf,
2019-03-09,-0.29, -0.11, -3.31, 1.84, 1.62, 7.32, suppf,
2019-03-10,0.51, -1.31, -2.28, 1.89, 1.73, 7.77, suppf,
2019-03-11,-0.76, 0.16, -2.74, 1.84, 1.67, 7.37, suppf,
2019-03-12,0.46, 0.81, 7.22, 1.84, 1.67, 7.37, suppf,
2019-03-13,1.49, 0.61, -2.33, 1.86, 1.66, 7.39, suppf,
2019-03-14,0.66, 0.94, -9.65, 1.83, 1.61, 7.23, suppf,
2019-03-15,-0.38, -0.32, -7.70, 1.85, 1.64, 7.39, suppf,
2019-03-16,-0.14, -0.70, -13.05, 1.82, 1.62, 7.25, suppf,
2019-03-17,0.43, -0.59, -4.94, 1.82, 1.61, 7.25, suppf,
2019-03-18,1.51, -1.04, -9.70, 1.87, 1.72, 7.58, suppf,
2019-03-19,0.76, 1.73, -11.68, 1.83, 1.61, 7.27, suppf,
2019-03-20,0.05, -0.13, -9.51, 1.87, 1.67, 7.50, suppf,
2019-03-21,-0.28, 1.13, -9.53, 1.83, 1.62, 7.32, suppf,
2019-03-22,0.53, -0.78, -8.41, 1.92, 1.66, 7.70, suppf,
2019-03-23,1.64, 0.98, -5.37, 1.83, 1.62, 7.29, suppf,
2019-03-24,0.19, 0.04, -7.44, 1.86, 1.65, 7.40, suppf,
2019-03-25,0.73, 0.09, -8.24, 1.86, 1.65, 7.37, suppf,
2019-03-26,-0.40, -0.52, -6.45, 1.86, 1.67, 7.45, suppf,
2019-03-27,-0.03, 0.80, -1.72, 1.83, 1.62, 7.29, suppf,
2019-03-28,0.63, 0.74, -5.50, 1.85, 1.67, 7.41, suppf,
2019-03-29,1.23, 0.77, -3.71, 1.86, 1.68, 7.45, suppf,
2019-03-30,0.78, 0.08, -7.42, 1.89, 1.67, 7.41, suppf,
2019-03-31,1.93, 0.50, -7.77, 1.95, 1.69, 7.61, suppf,
2019-04-01,0.50, -0.23, -7.58, 1.87, 1.65, 7.47, suppf,
2019-04-02,-1.12, 0.34, 2.32, 1.85, 1.67, 7.41, suppf,
2019-04-03,1.67, 1.54, 0.83, 1.86, 1.65, 7.47, suppf,
2019-04-04,0.47, 0.94, -9.05, 1.84, 1.62, 7.32, suppf,
2019-04-05,-0.39, 0.43, -0.10, 1.86, 1.67, 7.50, suppf,
2019-04-06,0.54, -0.06, -1.25, 1.83, 1.60, 7.25, suppf,
2019-04-07,0.79, 0.04, -4.78, 1.86, 1.64, 7.36, repro,
2019-04-08,0.90, 0.46, 0.57, 1.85, 1.67, 7.49, repro,
2019-04-09,0.42, -0.87, 0.18, 1.89, 1.64, 7.63, repro,
2019-04-10,-0.81, -0.65, 9.49, 1.90, 1.76, 7.82, repro,
2019-04-11,-1.22, 0.03, 4.23, 1.89, 1.73, 7.73, repro,
2019-04-12,1.11, -0.58, 4.42, 1.86, 1.60, 7.32, repro,
2019-04-13,2.76, -0.35, -1.29, 1.83, 1.59, 7.18, repro,
2019-04-14,0.27, -0.14, -2.31, 1.85, 1.65, 7.34, repro,
2019-04-15,1.05, 0.27, 1.62, 1.84, 1.62, 7.33, repro,
2019-04-16,-1.45, -0.24, 6.00, 1.84, 1.63, 7.44, repro,
2019-04-17,0.16, 0.53, 1.40, 1.85, 1.66, 7.44, repro,
2019-04-18,1.01, 0.08, -3.04, 1.86, 1.65, 7.36, repro,
2019-04-19,0.31, 1.00, 3.75, 1.89, 1.61, 7.34, repro,
2019-04-20,-0.34, 0.70, 4.99, 1.84, 1.62, 7.30, repro,
2019-04-21,1.01, 1.12, 8.18, 1.84, 1.64, 7.38, repro,
2019-04-22,-0.49, -0.62, 0.23, 1.85, 1.67, 7.45, repro,
2019-04-23,0.89, 0.31, -3.63, 1.83, 1.60, 7.22, repro,
2019-04-24,0.97, 1.28, 3.88, 1.95, 1.76, 7.90, repro,
2019-04-25,0.47, 0.21, -1.05, 1.90, 1.74, 7.63, repro,
2019-04-26,-0.96, 0.51, 5.34, 1.86, 1.67, 7.47, repro,
2019-04-27,0.36, -0.67, 2.04, 1.83, 1.61, 7.28, repro,
2019-04-28,-0.18, -0.40, -2.47, 1.85, 1.62, 7.40, repro,
2019-04-29,-1.18, -0.54, 5.87, 1.89, 1.70, 7.62, repro,
2019-04-30,-0.96, 1.08, 8.85, 1.91, 1.70, 7.72, repro,
2019-05-01,-0.25, 0.22, 1.18, 1.84, 1.62, 7.31, repro,
2019-05-02,-0.03, 0.53, 0.12, 1.88, 1.71, 7.45, repro,
2019-05-03,0.88, -0.11, 0.11, 1.85, 1.67, 7.35, repro,
2019-05-04,-1.03, -0.72, -3.58, 1.88, 1.64, 7.56, repro,
2019-05-05,-1.59, -1.58, 1.73, 1.85, 1.67, 7.44, suppf,
2019-05-06,-1.54, -0.55, 7.50, 1.85, 1.63, 7.41, suppf,
2019-05-07,-1.55, 0.71, 1.50, 1.87, 1.66, 7.43, suppf,
2019-05-08,0.60, 1.34, -0.34, 1.88, 1.65, 7.45, suppf,
2019-05-09,0.95, -0.97, 1.44, 1.84, 1.62, 7.34, suppf,
2019-05-10,-0.06, 0.81, 1.11, 1.85, 1.62, 7.38, suppf,
2019-05-11,-0.14, -1.19, 2.39, 1.85, 1.62, 7.39, suppf,
2019-05-12,-1.68, 0.45, 5.98, 1.86, 1.67, 7.45, suppf,
2019-05-13,-0.21, -0.58, 4.77, 1.84, 1.60, 7.30, suppf,
2019-05-14,0.06, 1.16, 2.10, 1.84, 1.61, 7.35, suppf,
2019-05-15,-0.73, 0.75, 0.65, 1.90, 1.70, 7.75, suppf,
2019-05-16,0.45, -2.54, 1.22, 1.94, 1.71, 7.88, suppf,
2019-05-17,-0.92, 0.89, 8.70, 1.83, 1.60, 7.23, suppf,
2019-05-18,-0.68, 0.36, 13.16, 1.86, 1.65, 7.35, suppf,
2019-05-19,-3.04, -0.09, 10.93, 1.85, 1.62, 7.34, suppf,
2019-05-20,-1.24, 2.78, 16.85, 1.84, 1.64, 7.43, suppf,
2019-05-21,0.59, -0.14, 5.72, 1.87, 1.65, 7.44, suppf,
2019-05-22,-1.48, 2.75, 14.86, 1.86, 1.66, 7.44, suppf,
2019-05-23,-1.14, 0.47, 7.44, 1.81, 1.60, 7.19, suppf,
2019-05-24,0.92, 0.57, -0.62, 1.82, 1.59, 7.18, suppf,
2019-05-25,0.29, 0.10, 3.87, 1.83, 1.61, 7.29, suppf,
2019-05-26,-1.05, 0.97, 3.26, 1.83, 1.61, 7.31, suppf,
2019-05-27,-0.60, 1.56, 5.63, 1.88, 1.60, 7.44, repro,
2019-05-28,-0.84, 0.88, 6.26, 1.82, 1.62, 7.21, suppf,
2019-05-29,0.01, 0.33, 8.73, 1.84, 1.65, 7.40, suppf,
2019-05-30,-0.91, 1.74, 11.61, 1.84, 1.65, 7.40, suppf,
2019-05-31,-0.96, 0.06, 3.59, 1.82, 1.59, 7.23, suppf,
2019-06-01,-0.60, 1.01, 8.07, 1.81, 1.57, 7.16, suppf,
2019-06-02,-1.33, 0.58, -0.81, 1.82, 1.59, 7.25, final,
2019-06-03,-0.33, -0.20, 2.92, 1.83, 1.58, 7.23, final,
2019-06-04,0.05, -0.17, 2.58, 1.83, 1.59, 7.21, final,
2019-06-05,-1.12, 0.32, 4.13, 1.84, 1.61, 7.33, final,
2019-06-06,-0.93, 1.84, 12.35, 1.87, 1.67, 7.51, final,
2019-06-07,-1.85, 0.88, 16.06, 1.82, 1.58, 7.19, final,
2019-06-08,-0.24, -0.26, 5.37, 1.81, 1.58, 7.20, final,
2019-06-09,-1.06, 0.17, 3.92, 1.83, 1.61, 7.30, final,
2019-06-10,0.14, 0.53, 3.11, 1.87, 1.64, 7.42, final,
2019-06-11,-0.41, 1.07, 5.59, 1.88, 1.64, 7.44, final,
2019-06-12,0.29, -0.44, 9.05, 1.86, 1.63, 7.36, final,
2019-06-13,0.44, 3.53, 6.44, 1.86, 1.61, 7.27, final,
2019-06-14,-0.67, 0.63, 8.44, 1.87, 1.64, 7.43, final,
2019-06-15,-1.43, 0.77, 5.38, 1.87, 1.64, 7.41, final,
2019-06-16,-0.43, 0.68, 4.18, 1.87, 1.64, 7.42, suppf,
2019-06-17,-1.73, 1.30, 9.16, 1.88, 1.62, 7.40, suppf,
2019-06-18,0.40, -0.10, 1.61, 1.86, 1.63, 7.33, suppf,
2019-06-19,1.35, 0.74, -4.07, 2.00, 1.84, 8.13, suppf,
2019-06-20,-0.28, -0.37, 10.25, 1.95, 1.72, 7.69, suppf,
2019-06-21,-0.22, 0.33, 11.87, 2.25, 1.96, 8.81, suppf,
2019-06-22,-1.87, 1.42, 17.15, 1.87, 1.63, 7.43, suppf,
2019-06-23,-1.58, 0.94, 19.15, 1.86, 1.63, 7.42, suppf,
2019-06-24,0.29, 1.25, 10.39, 1.88, 1.68, 7.52, suppf,
2019-06-25,-0.43, 0.10, 14.63, 1.88, 1.69, 7.58, suppf,
2019-06-26,-0.30, -0.44, 7.58, 1.86, 1.63, 7.37, suppf,
2019-06-27,0.79, -0.43, 1.40, 1.87, 1.63, 7.42, suppf,
2019-06-28,-0.96, 0.22, 7.66, 1.90, 1.65, 7.67, suppf,
2019-06-29,-0.78, -0.58, 2.34, 1.82, 1.59, 7.28, suppf,
2019-06-30,-1.88, -0.41, 14.42, 1.81, 1.58, 7.17, suppf,
2019-07-01,0.30, -0.37, 8.81, 1.83, 1.61, 7.29, suppf,
2019-07-02,-0.25, 1.38, 13.98, 1.83, 1.59, 7.23, suppf,
2019-07-03,-0.70, 0.21, 12.98, 1.83, 1.60, 7.28, suppf,
2019-07-04,-0.39, -0.63, 4.74, 1.83, 1.61, 7.32, suppf,
2019-07-05,-0.77, -0.75, 3.93, 1.83, 1.59, 7.28, suppf,
2019-07-06,-0.11, -0.41, 9.52, 1.81, 1.57, 7.14, suppf,
2019-07-07,1.43, 0.30, 6.51, 1.86, 1.63, 7.31, repro,
2019-07-08,0.96, 1.06, 12.83, 1.85, 1.63, 7.36, repro,
2019-07-09,0.06, 0.02, 8.10, 1.83, 1.59, 7.26, repro,
2019-07-10,0.55, 0.65, 5.41, 1.85, 1.66, 7.46, repro,
2019-07-11,1.38, -0.48, 3.53, 1.83, 1.64, 7.29, repro,
2019-07-12,1.02, -1.95, 5.40, 1.86, 1.63, 7.31, repro,
2019-07-13,-0.35, 0.67, 12.98, 1.94, 1.72, 7.66, repro,
2019-07-14,1.68, -0.55, 2.49, 1.87, 1.66, 7.50, final,
2019-07-15,0.95, 0.40, 11.75, 1.86, 1.63, 7.44, final,
2019-07-16,1.15, 0.03, 11.28, 1.87, 1.63, 7.43, final,
2019-07-17,-1.20, 0.49, 10.83, 1.88, 1.68, 7.68, final,
2019-07-18,0.40, 0.15, 2.11, 1.87, 1.65, 7.53, final,
2019-07-19,-0.19, 0.08, 2.54, 1.92, 1.65, 7.57, final,
2019-07-20,-1.05, 2.55, 10.59, 1.86, 1.66, 7.51, final,
2019-07-21,0.48, 0.01, 3.94, 1.87, 1.65, 7.53, final,
2019-07-22,-0.05, -0.46, 10.17, 1.87, 1.67, 7.66, final,
2019-07-23,-0.17, -0.01, 9.56, 1.90, 1.75, 7.73, final,
2019-07-24,0.29, 1.51, 5.11, 1.89, 1.70, 7.71, final,
2019-07-25,0.25, -0.30, 3.05, 1.81, 1.58, 7.19, final,
2019-07-26,0.68, -0.92, 6.70, 1.92, 1.75, 7.67, final,
2019-07-27,0.52, -0.61, 0.34, 1.83, 1.62, 7.38, final,
2019-07-28,-0.04, 0.46, 2.46, 1.83, 1.62, 7.33, final,
2019-07-29,1.24, 2.89, 5.23, 1.89, 1.64, 7.62, final,
2019-07-30,0.60, -0.03, 14.03, 1.82, 1.63, 7.39, final,
2019-07-31,0.38, -0.48, 1.29, 1.84, 1.66, 7.44, final,
2019-08-01,-0.12, 0.67, 4.30, 1.82, 1.59, 7.22, final,
2019-08-02,1.24, 0.87, -2.76, 1.85, 1.65, 7.36, final,
2019-08-03,0.23, -0.15, 6.59, 1.87, 1.65, 7.48, final,
2019-08-04,-0.20, -0.25, 3.24, 1.82, 1.59, 7.25, final,
2019-08-05,1.37, 0.19, 9.31, 1.91, 1.70, 7.62, final,
2019-08-06,-0.56, -0.22, 9.35, 1.88, 1.71, 7.72, final,
2019-08-07,1.74, -1.87, -0.78, 1.96, 1.66, 7.71, final,
2019-08-08,-2.09, -1.21, 14.08, 1.96, 1.73, 7.91, final,
2019-08-09,-0.08, -0.77, 10.96, 1.86, 1.70, 7.61, final,
2019-08-10,2.41, 0.88, 1.80, 1.93, 1.71, 7.68, final,
2019-08-11,0.97, -0.67, -2.10, 1.92, 1.68, 7.56, final,
2019-08-12,1.73, -1.76, -3.02, 1.88, 1.68, 7.57, final,
2019-08-13,0.97, -0.70, 5.32, 1.87, 1.62, 7.39, final,
2019-08-14,-0.83, 0.02, 5.76, 1.84, 1.65, 7.50, final,
2019-08-15,0.41, -1.10, 9.80, 1.82, 1.65, 7.34, final,
2019-08-16,0.48, -0.32, 5.91, 1.85, 1.66, 7.54, final,
2019-08-17,1.77, 0.54, 11.21, 1.83, 1.59, 7.26, final,
2019-08-18,-0.47, -0.05, -0.41, 1.84, 1.61, 7.34, final,
2019-08-19,0.36, -0.72, 6.37, 1.83, 1.63, 7.42, final,
2019-08-20,-2.04, 0.08, 10.16, 1.80, 1.60, 7.23, final,
2019-08-21,0.13, -0.92, 11.65, 1.82, 1.64, 7.32, final,
2019-08-22,0.56, -0.38, 12.64, 1.86, 1.65, 7.52, final,
2019-08-23,-1.62, 0.74, 17.10, 1.89, 1.67, 7.64, final,
2019-08-24,-0.19, -0.14, 0.37, 1.88, 1.65, 7.46, final,
2019-08-25,-0.33, 0.17, -6.81, 1.85, 1.66, 7.50, final,
2019-08-26,-0.57, -0.35, 11.37, 1.81, 1.60, 7.23, final,
2019-08-27,-1.41, 0.78, 15.41, 1.83, 1.60, 7.31, final,
2019-08-28,-1.33, 1.27, 9.99, 1.89, 1.68, 7.58, final,
2019-08-29,-1.04, -0.01, 3.82, 1.94, 1.66, 7.69, final,
2019-08-30,0.31, 0.55, 11.74, 1.87, 1.61, 7.42, final,
2019-08-31,-1.66, -1.59, 7.75, 1.82, 1.64, 7.41, final,
2019-09-01,0.40, 0.84, 1.60, 1.83, 1.61, 7.36, final,
2019-09-02,-1.35, -0.65, 7.56, 1.82, 1.60, 7.28, final,
2019-09-03,0.14, -1.28, -2.91, 1.81, 1.59, 7.27, final,
2019-09-04,0.39, -1.39, -2.50, 1.85, 1.63, 7.44, final,
2019-09-05,-2.23, 2.20, -6.59, 1.85, 1.69, 7.54, final,
2019-09-06,0.28, -0.37, -0.72, 1.87, 1.70, 7.71, final,
2019-09-07,0.01, -2.33, -10.91, 1.92, 1.74, 7.82, final,
2019-09-08,-1.55, -1.04, 8.20, 1.86, 1.63, 7.48, final,
2019-09-09,-2.88, -0.90, 7.21, 1.85, 1.65, 7.47, final,
2019-09-10,-1.24, 0.40, 12.82, 1.85, 1.64, 7.44, final,
2019-09-11,-2.33, 1.53, 1.70, 1.83, 1.62, 7.38, final,
2019-09-12,-0.82, -1.63, 5.19, 1.82, 1.61, 7.33, final,
2019-09-13,-1.74, 0.59, 4.16, 1.84, 1.65, 7.43, final,
2019-09-14,-1.36, 0.83, 13.93, 1.82, 1.63, 7.39, final,
2019-09-15,1.08, -0.17, 10.07, 1.84, 1.64, 7.46, final,
2019-09-16,-1.37, -0.31, 16.62, 1.86, 1.69, 7.66, final,
2019-09-17,-0.45, -0.05, 13.57, 1.85, 1.67, 7.59, final,
2019-09-18,0.51, -0.02, 2.98, 1.82, 1.62, 7.36, final,
2019-09-19,-1.03, -0.06, 12.00, 1.85, 1.65, 7.42, final,
2019-09-20,0.51, -0.64, 7.38, 1.90, 1.62, 7.52, final,
2019-09-21,0.10, -0.51, 4.52, 1.91, 1.64, 7.54, final,
2019-09-22,0.32, 0.08, 6.92, 2.99, 2.74, 13.00, rapid,
2019-09-23,-2.15, 0.08, 0.13, 3.12, 2.85, 13.61, rapid,
2019-09-24,2.50, 0.93, 2.71, 3.08, 2.82, 13.48, rapid,
2019-09-25,0.33, 1.39, 7.75, 2.94, 2.69, 12.79, rapid,
2019-09-26,-0.64, 2.90, 7.38, 2.98, 2.77, 13.07, rapid,
2019-09-27,-0.09, 0.45, 11.71, 2.94, 2.74, 12.84, rapid,
2019-09-28,-1.10, -0.19, 5.66, 2.92, 2.67, 12.57, rapid,
2019-09-29,-3.29, -1.72, 5.25, 2.94, 2.69, 12.67, rapid,
2019-09-30,-1.62, 0.04, 7.54, 2.90, 2.63, 12.39, rapid,
2019-10-01,-0.25, 0.85, 3.88, 2.90, 2.70, 12.65, rapid,
2019-10-02,0.09, 0.09, 2.93, 2.97, 2.74, 12.76, rapid,
2019-10-03,-0.37, 1.08, 3.49, 3.03, 2.70, 12.95, rapid,
2019-10-04,-0.76, -0.50, -0.15, 2.95, 2.74, 12.69, rapid,
2019-10-05,-0.83, -0.29, 2.41, 2.91, 2.67, 12.55, rapid,
2019-10-06,0.03, 1.30, 5.06, 2.92, 2.68, 12.63, rapid,
